| time (UTC) | temp F | wind direction | speed knots | gust knots | rain 1hr in | rain 24hr in | rain mn in | humidity % | barometer mb |
| 20260904153137 | 67 | 104 | 1.7 | 2.6 | 0.00 | 0.00 | 0.00 | 99 | 1015.2 |
| 20260904152634 | 67 | 38 | 2.6 | 5.2 | 0.00 | 0.00 | 0.00 | 99 | 1015.4 |
| 20260904152129 | 67 | 76 | 1.7 | 3.5 | 0.00 | 0.00 | 0.00 | 99 | 1015.5 |
| 20260904151624 | 67 | 88 | 4.3 | 7.0 | 0.00 | 0.00 | 0.00 | 99 | 1015.4 |
| 20260904151123 | 67 | 100 | 1.7 | 3.5 | 0.00 | 0.00 | 0.00 | 99 | 1015.3 |
| 20260904150619 | 67 | 87 | 0.9 | 2.6 | 0.00 | 0.00 | 0.00 | 99 | 1015.2 |
| 20260904150114 | 66 | 66 | 1.7 | 3.5 | 0.00 | 0.00 | 0.00 | 99 | 1015.1 |
| 20260904145612 | 67 | 5 | 0.9 | 2.6 | 0.00 | 0.00 | 0.00 | 99 | 1015.2 |
| 20260904145108 | 66 | 5 | 1.7 | 2.6 | 0.00 | 0.00 | 0.00 | 99 | 1015.3 |
| 20260904144604 | 66 | 33 | 1.7 | 1.7 | 0.00 | 0.00 | 0.00 | 99 | 1015.2 |
| 20260904144059 | 66 | 98 | 0.9 | 2.6 | 0.00 | 0.00 | 0.00 | 99 | 1015.3 |
| 20260904143555 | 66 | 80 | 0.9 | 1.7 | 0.00 | 0.00 | 0.00 | 99 | 1015.1 |
| 20260904143051 | 66 | 54 | 1.7 | 5.2 | 0.00 | 0.00 | 0.00 | 99 | 1015.0 |
| 20260904142548 | 66 | 36 | 0.9 | 2.6 | 0.00 | 0.00 | 0.00 | 99 | 1015.1 |
| 20260904142043 | 66 | 4 | 0.9 | 2.6 | 0.00 | 0.00 | 0.00 | 99 | 1014.7 |
| 20260904141538 | 66 | 39 | 1.7 | 2.6 | 0.00 | 0.00 | 0.00 | 99 | 1014.6 |
| 20260904141034 | 66 | 9 | 1.7 | 3.5 | 0.00 | 0.00 | 0.00 | 99 | 1014.7 |
| 20260904140533 | 66 | 327 | 1.7 | 1.7 | 0.00 | 0.00 | 0.00 | 99 | 1014.6 |
| 20260904140028 | 66 | 100 | 1.7 | 1.7 | 0.00 | 0.00 | 0.00 | 99 | 1014.6 |
| 20260904135527 | 66 | 43 | 1.7 | 5.2 | 0.00 | 0.00 | 0.00 | 99 | 1014.5 |
| 20260904135024 | 66 | 37 | 0.9 | 2.6 | 0.00 | 0.00 | 0.00 | 99 | 1014.4 |
| 20260904134519 | 66 | 78 | 1.7 | 2.6 | 0.00 | 0.00 | 0.00 | 99 | 1014.3 |
| 20260904134013 | 66 | 85 | 1.7 | 2.6 | 0.00 | 0.00 | 0.00 | 99 | 1014.3 |
| 20260904133507 | 66 | 121 | 0.9 | 1.7 | 0.00 | 0.00 | 0.00 | 99 | 1014.2 |
| 20260904133003 | 66 | 56 | 0.9 | 2.6 | 0.00 | 0.00 | 0.00 | 99 | 1014.1 |
| 20260904132458 | 66 | 344 | 0.9 | 2.6 | 0.00 | 0.00 | 0.00 | 99 | 1014.2 |
| 20260904131957 | 65 | 23 | 1.7 | 3.5 | 0.00 | 0.00 | 0.00 | 99 | 1014.2 |
| 20260904131452 | 65 | 359 | 1.7 | 2.6 | 0.00 | 0.00 | 0.00 | 99 | 1014.4 |
| 20260904130948 | 65 | 14 | 1.7 | 3.5 | 0.00 | 0.00 | 0.00 | 99 | 1014.2 |
| 20260904130447 | 65 | 82 | 0.9 | 1.7 | 0.00 | 0.00 | 0.00 | 99 | 1014.2 |
| 20260904125942 | 65 | 102 | 0.9 | 1.7 | 0.00 | 0.00 | 0.00 | 99 | 1014.2 |
| 20260904125438 | 65 | 2 | 1.7 | 1.7 | 0.00 | 0.00 | 0.00 | 99 | 1014.1 |
| 20260904124933 | 66 | 349 | 1.7 | 3.5 | 0.00 | 0.00 | 0.00 | 99 | 1013.7 |
| 20260904124429 | 65 | 258 | 0.9 | 1.7 | 0.00 | 0.00 | 0.00 | 99 | 1013.8 |
| 20260904123924 | 65 | 65 | 1.7 | 3.5 | 0.00 | 0.00 | 0.00 | 99 | 1013.6 |
| 20260904123419 | 65 | 9 | 0.9 | 1.7 | 0.00 | 0.00 | 0.00 | 99 | 1013.5 |
| 20260904122914 | 65 | 4 | 1.7 | 2.6 | 0.00 | 0.00 | 0.00 | 99 | 1013.5 |
| 20260904122414 | 65 | 87 | 1.7 | 1.7 | 0.00 | 0.00 | 0.00 | 99 | 1013.5 |
| 20260904121908 | 65 | 101 | 0.9 | 1.7 | 0.00 | 0.00 | 0.00 | 99 | 1013.4 |
| 20260904121405 | 65 | 331 | 1.7 | 2.6 | 0.00 | 0.00 | 0.00 | 99 | 1013.3 |
| 20260904120901 | 65 | 295 | 0.0 | 1.7 | 0.00 | 0.00 | 0.00 | 99 | 1013.4 |
| 20260904120357 | 65 | 26 | 1.7 | 1.7 | 0.00 | 0.00 | 0.00 | 99 | 1013.5 |
| 20260904115851 | 65 | 328 | 0.9 | 1.7 | 0.00 | 0.00 | 0.00 | 99 | 1013.4 |
| 20260904115346 | 66 | 36 | 0.0 | 0.9 | 0.00 | 0.00 | 0.00 | 99 | 1013.2 |
| 20260904114841 | 66 | 58 | 0.0 | 1.7 | 0.00 | 0.00 | 0.00 | 99 | 1013.2 |
| 20260904114336 | 65 | 150 | 0.0 | 0.9 | 0.00 | 0.00 | 0.00 | 99 | 1013.3 |
| 20260904113831 | 65 | 154 | 0.0 | 0.0 | 0.00 | 0.00 | 0.00 | 99 | 1013.2 |
| 20260904113330 | 66 | 116 | 0.9 | 2.6 | 0.00 | 0.00 | 0.00 | 99 | 1013.1 |
| 20260904112825 | 65 | 88 | 0.9 | 1.7 | 0.00 | 0.00 | 0.00 | 99 | 1012.8 |
| 20260904112320 | 66 | 194 | 0.0 | 0.9 | 0.00 | 0.00 | 0.00 | 99 | 1012.9 |
| 20260904111816 | 65 | 99 | 0.9 | 2.6 | 0.00 | 0.00 | 0.00 | 99 | 1012.9 |
| 20260904111311 | 66 | 77 | 0.9 | 0.9 | 0.00 | 0.00 | 0.00 | 99 | 1012.7 |
| 20260904110807 | 66 | 95 | 2.6 | 3.5 | 0.00 | 0.00 | 0.00 | 99 | 1012.8 |
| 20260904110306 | 66 | 82 | 1.7 | 1.7 | 0.00 | 0.00 | 0.00 | 99 | 1012.8 |
| 20260904105801 | 66 | 70 | 1.7 | 2.6 | 0.00 | 0.00 | 0.00 | 99 | 1012.6 |
| 20260904105256 | 66 | 55 | 3.5 | 3.5 | 0.00 | 0.00 | 0.00 | 99 | 1012.8 |
| 20260904104751 | 66 | 80 | 0.9 | 3.5 | 0.00 | 0.00 | 0.00 | 99 | 1012.7 |
| 20260904104247 | 66 | 68 | 0.9 | 2.6 | 0.00 | 0.00 | 0.00 | 99 | 1012.9 |
| 20260904103743 | 66 | 43 | 0.9 | 1.7 | 0.00 | 0.00 | 0.00 | 99 | 1012.9 |
| 20260904103237 | 66 | 114 | 0.0 | 1.7 | 0.00 | 0.00 | 0.00 | 99 | 1012.6 |
| 20260904102733 | 66 | 116 | 1.7 | 2.6 | 0.00 | 0.00 | 0.00 | 99 | 1012.6 |
| 20260904102229 | 66 | 102 | 0.9 | 3.5 | 0.00 | 0.00 | 0.00 | 99 | 1012.5 |
| 20260904101725 | 66 | 65 | 1.7 | 5.2 | 0.00 | 0.00 | 0.00 | 99 | 1012.7 |
| 20260904101220 | 66 | 79 | 0.9 | 3.5 | 0.00 | 0.00 | 0.00 | 99 | 1012.5 |
| 20260904100717 | 66 | 94 | 2.6 | 5.2 | 0.00 | 0.00 | 0.00 | 99 | 1012.8 |
| 20260904100212 | 66 | 69 | 2.6 | 3.5 | 0.00 | 0.00 | 0.00 | 99 | 1012.6 |
| 20260904095711 | 66 | 49 | 3.5 | 5.2 | 0.00 | 0.00 | 0.00 | 99 | 1012.5 |
| 20260904095206 | 66 | 66 | 0.9 | 1.7 | 0.00 | 0.00 | 0.00 | 99 | 1012.8 |
| 20260904094701 | 66 | 94 | 1.7 | 2.6 | 0.00 | 0.00 | 0.00 | 99 | 1012.6 |
| 20260904094156 | 66 | 69 | 3.5 | 6.1 | 0.00 | 0.00 | 0.00 | 99 | 1012.5 |
| 20260904093654 | 66 | 60 | 0.9 | 5.2 | 0.00 | 0.00 | 0.00 | 99 | 1012.5 |
| 20260904093153 | 66 | 17 | 1.7 | 2.6 | 0.00 | 0.00 | 0.00 | 99 | 1012.5 |
| 20260904092649 | 66 | 115 | 0.9 | 1.7 | 0.00 | 0.00 | 0.00 | 99 | 1012.7 |
| 20260904092145 | 66 | 108 | 0.9 | 1.7 | 0.00 | 0.00 | 0.00 | 99 | 1012.7 |
| 20260904091641 | 66 | 72 | 0.9 | 5.2 | 0.00 | 0.00 | 0.00 | 99 | 1012.7 |
| 20260904091141 | 66 | 7 | 3.5 | 6.1 | 0.00 | 0.00 | 0.00 | 99 | 1012.7 |
| 20260904090636 | 66 | 78 | 1.7 | 2.6 | 0.00 | 0.00 | 0.00 | 99 | 1012.6 |
| 20260904090132 | 66 | 123 | 0.9 | 3.5 | 0.00 | 0.00 | 0.00 | 99 | 1012.4 |
| 20260904085631 | 66 | 125 | 0.0 | 0.9 | 0.00 | 0.00 | 0.00 | 99 | 1012.4 |
| 20260904085126 | 66 | 99 | 1.7 | 5.2 | 0.00 | 0.00 | 0.00 | 99 | 1012.4 |
| 20260904084622 | 66 | 89 | 0.9 | 3.5 | 0.00 | 0.00 | 0.00 | 99 | 1012.2 |
| 20260904084118 | 66 | 119 | 0.9 | 1.7 | 0.00 | 0.00 | 0.00 | 99 | 1011.9 |
| 20260904083614 | 67 | 66 | 1.7 | 2.6 | 0.00 | 0.00 | 0.00 | 99 | 1012.0 |
| 20260904083109 | 67 | 50 | 0.9 | 1.7 | 0.00 | 0.00 | 0.00 | 99 | 1011.9 |
| 20260904082604 | 67 | 59 | 0.9 | 1.7 | 0.00 | 0.00 | 0.00 | 98 | 1011.9 |
| 20260904082100 | 67 | 82 | 1.7 | 3.5 | 0.00 | 0.00 | 0.00 | 98 | 1011.7 |
| 20260904081555 | 67 | 114 | 0.9 | 2.6 | 0.00 | 0.00 | 0.00 | 98 | 1011.6 |
| 20260904081050 | 68 | 99 | 1.7 | 3.5 | 0.00 | 0.00 | 0.00 | 98 | 1011.7 |
| 20260904080546 | 68 | 55 | 3.5 | 3.5 | 0.00 | 0.00 | 0.00 | 98 | 1011.4 |
| 20260904080042 | 68 | 8 | 1.7 | 3.5 | 0.00 | 0.00 | 0.00 | 98 | 1011.2 |
| 20260904075538 | 68 | 92 | 3.5 | 3.5 | 0.00 | 0.00 | 0.00 | 98 | 1011.2 |
| 20260904075032 | 69 | 120 | 0.9 | 1.7 | 0.00 | 0.00 | 0.00 | 98 | 1011.4 |
| 20260904074531 | 69 | 72 | 1.7 | 5.2 | 0.00 | 0.00 | 0.00 | 98 | 1011.3 |
| 20260904074026 | 69 | 95 | 1.7 | 3.5 | 0.00 | 0.00 | 0.00 | 98 | 1011.2 |
| 20260904073521 | 70 | 86 | 2.6 | 3.5 | 0.00 | 0.00 | 0.00 | 98 | 1011.3 |
| 20260904073018 | 70 | 91 | 0.9 | 2.6 | 0.00 | 0.00 | 0.00 | 99 | 1011.3 |
| 20260904072513 | 71 | 81 | 1.7 | 3.5 | 0.00 | 0.00 | 0.00 | 99 | 1011.3 |
| 20260904072008 | 71 | 76 | 0.9 | 2.6 | 0.00 | 0.00 | 0.00 | 99 | 1011.2 |
| 20260904071503 | 71 | 149 | 0.9 | 2.6 | 0.00 | 0.00 | 0.00 | 98 | 1011.4 |
| 20260904070958 | 71 | 88 | 0.9 | 3.5 | 0.00 | 0.00 | 0.00 | 98 | 1011.5 |
| 20260904070457 | 72 | 124 | 1.7 | 5.2 | 0.00 | 0.00 | 0.00 | 98 | 1011.1 |
| 20260904065952 | 72 | 119 | 0.9 | 1.7 | 0.00 | 0.00 | 0.00 | 98 | 1011.2 |
| 20260904065447 | 72 | 123 | 1.7 | 2.6 | 0.00 | 0.00 | 0.00 | 98 | 1011.2 |
| 20260904064942 | 72 | 124 | 0.0 | 3.5 | 0.00 | 0.00 | 0.00 | 98 | 1011.4 |
| 20260904064438 | 73 | 15 | 0.9 | 1.7 | 0.00 | 0.00 | 0.00 | 98 | 1010.9 |
| 20260904063933 | 73 | 123 | 1.7 | 1.7 | 0.00 | 0.00 | 0.00 | 97 | 1010.9 |
| 20260904063430 | 73 | 55 | 1.7 | 7.8 | 0.00 | 0.00 | 0.00 | 97 | 1011.5 |
| 20260904062924 | 74 | 9 | 2.6 | 6.1 | 0.00 | 0.00 | 0.00 | 97 | 1011.2 |
| 20260904062420 | 74 | 137 | 0.0 | 1.7 | 0.00 | 0.00 | 0.00 | 96 | 1010.9 |
| 20260904061916 | 73 | 114 | 1.7 | 3.5 | 0.00 | 0.00 | 0.00 | 97 | 1010.7 |
| 20260904061412 | 74 | 64 | 1.7 | 1.7 | 0.00 | 0.00 | 0.00 | 97 | 1010.6 |
| 20260904060908 | 73 | 88 | 0.9 | 1.7 | 0.00 | 0.00 | 0.00 | 97 | 1010.8 |
| 20260904060404 | 74 | 107 | 1.7 | 2.6 | 0.00 | 0.00 | 0.00 | 97 | 1010.8 |
| 20260904055859 | 74 | 120 | 1.7 | 2.6 | 0.00 | 0.00 | 0.00 | 97 | 1010.8 |
| 20260904055354 | 74 | 124 | 0.9 | 0.9 | 0.00 | 0.00 | 0.00 | 97 | 1010.8 |
| 20260904054850 | 74 | 141 | 0.9 | 1.7 | 0.00 | 0.00 | 0.00 | 97 | 1010.8 |
| 20260904054346 | 74 | 122 | 0.9 | 0.9 | 0.00 | 0.00 | 0.00 | 97 | 1010.8 |
| 20260904053841 | 74 | 195 | 0.9 | 1.7 | 0.00 | 0.00 | 0.00 | 97 | 1010.7 |
| 20260904053340 | 74 | 120 | 0.9 | 1.7 | 0.00 | 0.00 | 0.00 | 97 | 1010.5 |
| 20260904052836 | 74 | 123 | 1.7 | 2.6 | 0.00 | 0.00 | 0.00 | 97 | 1010.5 |
| 20260904052333 | 74 | 70 | 1.7 | 1.7 | 0.00 | 0.00 | 0.00 | 98 | 1010.5 |
| 20260904051829 | 74 | 127 | 0.9 | 0.9 | 0.00 | 0.00 | 0.00 | 98 | 1010.4 |
| 20260904051324 | 74 | 120 | 0.0 | 0.9 | 0.00 | 0.00 | 0.00 | 98 | 1010.4 |
| 20260904050819 | 74 | 128 | 0.0 | 0.0 | 0.00 | 0.00 | 0.00 | 97 | 1010.1 |
| 20260904050316 | 74 | 150 | 0.0 | 0.9 | 0.00 | 0.00 | 0.00 | 97 | 1010.2 |
| 20260904045810 | 74 | 74 | 0.9 | 1.7 | 0.00 | 0.03 | 0.03 | 97 | 1010.2 |
| 20260904045307 | 74 | 210 | 0.0 | 0.9 | 0.00 | 0.03 | 0.03 | 97 | 1010.3 |
| 20260904044759 | 75 | 127 | 0.0 | 0.0 | 0.00 | 0.03 | 0.03 | 96 | 1010.3 |
| 20260904044256 | 75 | 183 | 0.0 | 0.9 | 0.00 | 0.03 | 0.03 | 95 | 1010.2 |
| 20260904043746 | 75 | 78 | 0.0 | 1.7 | 0.00 | 0.03 | 0.03 | 96 | 1010.0 |
| 20260904043243 | 75 | 76 | 1.7 | 1.7 | 0.00 | 0.03 | 0.03 | 96 | 1010.1 |
| 20260904042743 | 75 | 109 | 1.7 | 1.7 | 0.00 | 0.03 | 0.03 | 97 | 1010.1 |
| 20260904042239 | 74 | 89 | 0.9 | 1.7 | 0.00 | 0.03 | 0.03 | 98 | 1010.2 |
| 20260904041738 | 74 | 173 | 0.0 | 0.0 | 0.00 | 0.03 | 0.03 | 98 | 1010.1 |
| 20260904041235 | 74 | 114 | 0.0 | 0.9 | 0.00 | 0.03 | 0.03 | 98 | 1010.1 |
| 20260904040731 | 75 | 96 | 0.9 | 0.9 | 0.00 | 0.03 | 0.03 | 97 | 1010.2 |
| 20260904040226 | 75 | 99 | 0.9 | 0.9 | 0.00 | 0.03 | 0.03 | 96 | 1010.2 |
| 20260904035722 | 75 | 81 | 0.9 | 0.9 | 0.00 | 0.03 | 0.03 | 96 | 1010.2 |
| 20260904035217 | 75 | 174 | 0.0 | 0.9 | 0.00 | 0.03 | 0.03 | 96 | 1010.2 |
| 20260904034716 | 75 | 130 | 0.0 | 0.9 | 0.00 | 0.03 | 0.03 | 97 | 1010.2 |
| 20260904034212 | 75 | 203 | 0.0 | 0.0 | 0.00 | 0.03 | 0.03 | 96 | 1010.1 |
| 20260904033708 | 76 | 123 | 0.0 | 0.0 | 0.00 | 0.03 | 0.03 | 96 | 1010.1 |
| 20260904033204 | 76 | 115 | 0.9 | 0.9 | 0.00 | 0.03 | 0.03 | 95 | 1010.1 |
| 20260904032700 | 76 | 137 | 0.9 | 1.7 | 0.00 | 0.03 | 0.03 | 94 | 1010.1 |
| 20260904032200 | 76 | 339 | 0.0 | 1.7 | 0.00 | 0.03 | 0.03 | 94 | 1010.0 |
| 20260904031700 | 76 | 119 | 0.9 | 1.7 | 0.00 | 0.03 | 0.03 | 95 | 1009.9 |
| 20260904031155 | 76 | 107 | 3.5 | 3.5 | 0.00 | 0.03 | 0.03 | 96 | 1009.7 |
| 20260904030651 | 76 | 167 | 0.9 | 2.6 | 0.00 | 0.03 | 0.03 | 97 | 1009.9 |
| 20260904030146 | 75 | 99 | 0.9 | 2.6 | 0.00 | 0.03 | 0.03 | 97 | 1010.1 |
| 20260904025642 | 76 | 114 | 0.0 | 2.6 | 0.00 | 0.03 | 0.03 | 97 | 1010.1 |
| 20260904025137 | 76 | 23 | 0.9 | 1.7 | 0.00 | 0.03 | 0.03 | 97 | 1009.9 |
| 20260904024632 | 76 | 151 | 0.0 | 0.9 | 0.00 | 0.03 | 0.03 | 96 | 1009.9 |
| 20260904024128 | 77 | 283 | 0.0 | 0.9 | 0.00 | 0.03 | 0.03 | 95 | 1009.9 |
| 20260904023623 | 77 | 24 | 1.7 | 2.6 | 0.00 | 0.03 | 0.03 | 94 | 1009.9 |
| 20260904023114 | 77 | 72 | 0.9 | 1.7 | 0.00 | 0.03 | 0.03 | 93 | 1009.7 |
| 20260904022614 | 77 | 82 | 0.9 | 2.6 | 0.00 | 0.03 | 0.03 | 93 | 1010.0 |
| 20260904022111 | 77 | 141 | 1.7 | 2.6 | 0.00 | 0.03 | 0.03 | 93 | 1009.7 |
| 20260904021606 | 77 | 97 | 2.6 | 2.6 | 0.00 | 0.03 | 0.03 | 93 | 1009.9 |
| 20260904021101 | 77 | 113 | 1.7 | 3.5 | 0.00 | 0.03 | 0.03 | 93 | 1009.6 |
| 20260904020556 | 77 | 99 | 1.7 | 3.5 | 0.05 | 0.03 | 0.03 | 93 | 1009.3 |
| 20260904020050 | 78 | 150 | 0.9 | 2.6 | 0.19 | 0.03 | 0.03 | 91 | 1009.5 |
| 20260904015545 | 81 | 63 | 0.9 | 2.6 | 0.14 | 0.02 | 0.02 | 85 | 1009.9 |
| 20260904015044 | 81 | 325 | 1.7 | 1.7 | 0.00 | 0.00 | 0.00 | 81 | 1009.9 |
| 20260904014538 | 81 | 5 | 1.7 | 2.6 | 0.00 | 0.00 | 0.00 | 81 | 1009.6 |
| 20260904014034 | 81 | 28 | 0.0 | 0.9 | 0.00 | 0.00 | 0.00 | 80 | 1009.4 |
| 20260904013531 | 82 | 117 | 0.0 | 0.9 | 0.00 | 0.00 | 0.00 | 80 | 1009.7 |
| 20260904013027 | 82 | 165 | 0.9 | 2.6 | 0.00 | 0.00 | 0.00 | 79 | 1009.5 |
| 20260904012526 | 82 | 122 | 1.7 | 2.6 | 0.00 | 0.00 | 0.00 | 79 | 1009.2 |
| 20260904012020 | 82 | 110 | 2.6 | 2.6 | 0.00 | 0.00 | 0.00 | 79 | 1009.0 |
| 20260904011514 | 82 | 115 | 2.6 | 2.6 | 0.00 | 0.00 | 0.00 | 78 | 1009.3 |
| 20260904011010 | 82 | 166 | 0.9 | 1.7 | 0.00 | 0.00 | 0.00 | 78 | 1009.5 |
| 20260904010506 | 83 | 110 | 0.9 | 1.7 | 0.00 | 0.00 | 0.00 | 77 | 1009.4 |
| 20260904010002 | 83 | 82 | 1.7 | 1.7 | 0.00 | 0.00 | 0.00 | 77 | 1009.3 |
| 20260904005456 | 84 | 85 | 3.5 | 3.5 | 0.00 | 0.00 | 0.00 | 76 | 1009.4 |
| 20260904004951 | 84 | 88 | 1.7 | 1.7 | 0.00 | 0.00 | 0.00 | 73 | 1009.3 |
| 20260904004448 | 85 | 102 | 1.7 | 1.7 | 0.00 | 0.00 | 0.00 | 71 | 1009.4 |
| 20260904003947 | 85 | 79 | 1.7 | 2.6 | 0.00 | 0.00 | 0.00 | 69 | 1009.3 |
| 20260904003443 | 85 | 115 | 0.9 | 1.7 | 0.00 | 0.00 | 0.00 | 69 | 1009.3 |
| 20260904002938 | 86 | 115 | 0.9 | 1.7 | 0.00 | 0.00 | 0.00 | 69 | 1009.3 |
| 20260904002435 | 86 | 134 | 0.9 | 3.5 | 0.00 | 0.00 | 0.00 | 68 | 1009.0 |
| 20260904001934 | 87 | 87 | 0.9 | 2.6 | 0.00 | 0.00 | 0.00 | 67 | 1009.0 |
| 20260904001429 | 87 | 73 | 1.7 | 2.6 | 0.00 | 0.00 | 0.00 | 66 | 1008.9 |
| 20260904000924 | 88 | 170 | 0.9 | 0.9 | 0.00 | 0.00 | 0.00 | 65 | 1008.9 |
| 20260904000425 | 88 | 68 | 0.0 | 1.7 | 0.00 | 0.00 | 0.00 | 65 | 1008.9 |
| 20260903235919 | 88 | 202 | 0.9 | 0.9 | 0.00 | 0.00 | 0.00 | 64 | 1009.0 |
| 20260903235415 | 89 | 223 | 0.0 | 1.7 | 0.00 | 0.00 | 0.00 | 64 | 1008.8 |
| 20260903234914 | 88 | 214 | 0.0 | 5.2 | 0.00 | 0.00 | 0.00 | 64 | 1008.7 |
| 20260903234410 | 88 | 280 | 1.7 | 3.5 | 0.00 | 0.00 | 0.00 | 64 | 1008.7 |
| 20260903233906 | 89 | 176 | 1.7 | 2.6 | 0.00 | 0.00 | 0.00 | 64 | 1008.5 |
| 20260903233402 | 89 | 236 | 1.7 | 3.5 | 0.00 | 0.00 | 0.00 | 63 | 1008.5 |
| 20260903232902 | 89 | 161 | 1.7 | 3.5 | 0.00 | 0.00 | 0.00 | 64 | 1008.4 |
| 20260903232357 | 89 | 185 | 1.7 | 5.2 | 0.00 | 0.00 | 0.00 | 64 | 1008.5 |
| 20260903231856 | 89 | 258 | 0.9 | 2.6 | 0.00 | 0.00 | 0.00 | 63 | 1008.3 |
| 20260903231351 | 89 | 247 | 2.6 | 6.1 | 0.00 | 0.00 | 0.00 | 63 | 1008.5 |
| 20260903230847 | 89 | 224 | 1.7 | 2.6 | 0.00 | 0.00 | 0.00 | 64 | 1008.3 |
| 20260903230341 | 90 | 110 | 0.9 | 2.6 | 0.00 | 0.00 | 0.00 | 63 | 1008.3 |
| 20260903225838 | 89 | 166 | 2.6 | 5.2 | 0.00 | 0.00 | 0.00 | 64 | 1008.4 |
| 20260903225328 | 89 | 67 | 3.5 | 6.1 | 0.00 | 0.00 | 0.00 | 63 | 1008.4 |
| 20260903224824 | 90 | 86 | 6.1 | 7.8 | 0.00 | 0.00 | 0.00 | 62 | 1008.2 |
| 20260903224320 | 90 | 164 | 0.9 | 5.2 | 0.00 | 0.00 | 0.00 | 62 | 1008.3 |
| 20260903223815 | 90 | 177 | 1.7 | 2.6 | 0.00 | 0.00 | 0.00 | 61 | 1008.2 |
| 20260903223309 | 89 | 164 | 0.9 | 5.2 | 0.00 | 0.00 | 0.00 | 62 | 1008.3 |
| 20260903222804 | 89 | 251 | 0.9 | 3.5 | 0.00 | 0.00 | 0.00 | 62 | 1008.2 |
| 20260903222305 | 89 | 138 | 2.6 | 7.0 | 0.00 | 0.00 | 0.00 | 62 | 1008.1 |
| 20260903221757 | 90 | 247 | 0.9 | 7.8 | 0.00 | 0.00 | 0.00 | 61 | 1008.3 |
| 20260903221256 | 91 | 80 | 3.5 | 5.2 | 0.00 | 0.00 | 0.00 | 60 | 1008.3 |
| 20260903220754 | 90 | 139 | 0.9 | 3.5 | 0.00 | 0.00 | 0.00 | 61 | 1008.4 |
| 20260903220249 | 90 | 151 | 1.7 | 3.5 | 0.00 | 0.00 | 0.00 | 62 | 1008.5 |
| 20260903215742 | 90 | 86 | 1.7 | 5.2 | 0.00 | 0.00 | 0.00 | 60 | 1008.4 |
| 20260903215238 | 90 | 108 | 0.9 | 3.5 | 0.00 | 0.00 | 0.00 | 62 | 1008.5 |
| 20260903214735 | 89 | 82 | 3.5 | 7.0 | 0.00 | 0.00 | 0.00 | 61 | 1008.5 |
| 20260903214232 | 90 | 255 | 1.7 | 5.2 | 0.00 | 0.00 | 0.00 | 61 | 1008.7 |
| 20260903213725 | 90 | 174 | 0.9 | 6.1 | 0.00 | 0.00 | 0.00 | 60 | 1008.5 |
| 20260903213222 | 90 | 150 | 4.3 | 8.7 | 0.00 | 0.00 | 0.00 | 61 | 1008.5 |
| 20260903212712 | 91 | 109 | 2.6 | 7.8 | 0.00 | 0.00 | 0.00 | 59 | 1008.6 |
| 20260903212208 | 91 | 301 | 0.9 | 2.6 | 0.00 | 0.00 | 0.00 | 58 | 1008.6 |
| 20260903211702 | 91 | 67 | 1.7 | 5.2 | 0.00 | 0.00 | 0.00 | 57 | 1008.5 |
| 20260903211159 | 91 | 275 | 4.3 | 6.1 | 0.00 | 0.00 | 0.00 | 57 | 1008.7 |
| 20260903210654 | 90 | 327 | 2.6 | 3.5 | 0.00 | 0.00 | 0.00 | 57 | 1008.4 |
| 20260903210150 | 91 | 242 | 4.3 | 5.2 | 0.00 | 0.00 | 0.00 | 58 | 1008.6 |
| 20260903205649 | 91 | 225 | 4.3 | 6.1 | 0.00 | 0.00 | 0.00 | 58 | 1008.5 |
| 20260903205148 | 91 | 178 | 1.7 | 3.5 | 0.00 | 0.00 | 0.00 | 59 | 1008.5 |
| 20260903204644 | 91 | 83 | 5.2 | 7.8 | 0.00 | 0.00 | 0.00 | 58 | 1008.4 |
| 20260903204140 | 91 | 202 | 0.9 | 5.2 | 0.00 | 0.00 | 0.00 | 58 | 1008.4 |
| 20260903203635 | 89 | 103 | 4.3 | 7.0 | 0.00 | 0.00 | 0.00 | 62 | 1008.1 |
| 20260903203130 | 91 | 99 | 5.2 | 7.8 | 0.00 | 0.00 | 0.00 | 60 | 1008.3 |
| 20260903202625 | 89 | 139 | 3.5 | 5.2 | 0.00 | 0.00 | 0.00 | 60 | 1008.2 |
| 20260903202120 | 90 | 175 | 2.6 | 3.5 | 0.00 | 0.00 | 0.00 | 59 | 1008.3 |
| 20260903201614 | 89 | 124 | 2.6 | 9.6 | 0.00 | 0.00 | 0.00 | 63 | 1008.4 |
| 20260903201114 | 91 | 94 | 7.8 | 9.6 | 0.00 | 0.00 | 0.00 | 59 | 1008.4 |
| 20260903200609 | 91 | 193 | 1.7 | 5.2 | 0.00 | 0.00 | 0.00 | 57 | 1008.4 |
| 20260903200104 | 90 | 189 | 2.6 | 6.1 | 0.00 | 0.00 | 0.00 | 58 | 1008.3 |
| 20260903195600 | 90 | 91 | 1.7 | 6.1 | 0.00 | 0.00 | 0.00 | 57 | 1008.4 |
| 20260903195055 | 90 | 190 | 5.2 | 7.8 | 0.00 | 0.00 | 0.00 | 57 | 1008.3 |
| 20260903194545 | 91 | 143 | 1.7 | 2.6 | 0.00 | 0.00 | 0.00 | 58 | 1008.2 |
| 20260903194040 | 90 | 81 | 3.5 | 7.8 | 0.00 | 0.00 | 0.00 | 58 | 1008.4 |
| 20260903193531 | 89 | 84 | 2.6 | 7.0 | 0.00 | 0.00 | 0.00 | 59 | 1008.2 |
| 20260903193026 | 89 | 54 | 6.1 | 7.8 | 0.00 | 0.00 | 0.00 | 60 | 1008.4 |
| 20260903192522 | 90 | 144 | 5.2 | 8.7 | 0.00 | 0.00 | 0.00 | 59 | 1008.4 |
| 20260903192017 | 90 | 205 | 0.9 | 5.2 | 0.00 | 0.00 | 0.00 | 57 | 1008.5 |
| 20260903191513 | 89 | 218 | 1.7 | 3.5 | 0.00 | 0.00 | 0.00 | 60 | 1008.4 |
| 20260903191013 | 89 | 155 | 3.5 | 7.8 | 0.00 | 0.00 | 0.00 | 59 | 1008.5 |
| 20260903190506 | 89 | 163 | 1.7 | 7.0 | 0.00 | 0.00 | 0.00 | 58 | 1008.7 |
| 20260903190000 | 89 | 237 | 3.5 | 6.1 | 0.00 | 0.00 | 0.00 | 59 | 1008.8 |
| 20260903185456 | 88 | 170 | 4.3 | 8.7 | 0.00 | 0.00 | 0.00 | 60 | 1009.0 |
| 20260903184956 | 88 | 228 | 6.1 | 11.3 | 0.00 | 0.00 | 0.00 | 59 | 1009.0 |
| 20260903184448 | 90 | 240 | 5.2 | 7.0 | 0.00 | 0.00 | 0.00 | 57 | 1009.1 |
| 20260903183947 | 89 | 151 | 3.5 | 6.1 | 0.00 | 0.00 | 0.00 | 60 | 1009.1 |
| 20260903183442 | 89 | 235 | 4.3 | 7.0 | 0.00 | 0.00 | 0.00 | 59 | 1009.3 |
| 20260903182942 | 89 | 301 | 0.9 | 7.8 | 0.00 | 0.00 | 0.00 | 59 | 1009.3 |
| 20260903182441 | 88 | 145 | 4.3 | 11.3 | 0.00 | 0.00 | 0.00 | 61 | 1009.5 |
| 20260903181936 | 88 | 160 | 1.7 | 6.1 | 0.00 | 0.00 | 0.00 | 60 | 1009.3 |
| 20260903181430 | 88 | 84 | 3.5 | 6.1 | 0.00 | 0.00 | 0.00 | 61 | 1009.3 |
| 20260903180930 | 88 | 170 | 1.7 | 7.0 | 0.00 | 0.00 | 0.00 | 60 | 1009.5 |
| 20260903180425 | 87 | 155 | 2.6 | 7.8 | 0.00 | 0.00 | 0.00 | 60 | 1009.7 |
| 20260903175924 | 88 | 242 | 5.2 | 9.6 | 0.00 | 0.00 | 0.00 | 61 | 1009.7 |
| 20260903175419 | 87 | 244 | 0.9 | 2.6 | 0.00 | 0.00 | 0.00 | 60 | 1009.5 |
| 20260903174913 | 86 | 2 | 1.7 | 3.5 | 0.00 | 0.00 | 0.00 | 62 | 1009.7 |
| 20260903174408 | 86 | 84 | 3.5 | 8.7 | 0.00 | 0.00 | 0.00 | 63 | 1009.6 |
| 20260903173903 | 86 | 98 | 1.7 | 7.8 | 0.00 | 0.00 | 0.00 | 63 | 1009.7 |
| 20260903173358 | 86 | 184 | 1.7 | 2.6 | 0.00 | 0.00 | 0.00 | 63 | 1010.0 |
| 20260903172853 | 86 | 142 | 3.5 | 7.0 | 0.00 | 0.00 | 0.00 | 62 | 1009.9 |
| 20260903172348 | 86 | 73 | 1.7 | 12.2 | 0.00 | 0.00 | 0.00 | 63 | 1010.1 |
| 20260903171843 | 85 | 194 | 0.9 | 5.2 | 0.00 | 0.00 | 0.00 | 64 | 1010.1 |
| 20260903171338 | 86 | 99 | 3.5 | 7.8 | 0.00 | 0.00 | 0.00 | 62 | 1009.9 |
| 20260903170837 | 85 | 223 | 1.7 | 6.1 | 0.00 | 0.00 | 0.00 | 64 | 1010.3 |
| 20260903170333 | 85 | 221 | 1.7 | 2.6 | 0.00 | 0.00 | 0.00 | 62 | 1010.0 |
| 20260903165831 | 85 | 157 | 1.7 | 6.1 | 0.00 | 0.00 | 0.00 | 63 | 1010.2 |
| 20260903165331 | 85 | 205 | 2.6 | 5.2 | 0.00 | 0.00 | 0.00 | 62 | 1010.1 |
| 20260903164826 | 86 | 55 | 2.6 | 8.7 | 0.00 | 0.00 | 0.00 | 63 | 1010.1 |
| 20260903164321 | 85 | 101 | 1.7 | 3.5 | 0.00 | 0.00 | 0.00 | 63 | 1010.1 |
| 20260903163820 | 84 | 98 | 3.5 | 7.0 | 0.00 | 0.00 | 0.00 | 65 | 1010.4 |
| 20260903163318 | 84 | 92 | 3.5 | 13.0 | 0.00 | 0.00 | 0.00 | 66 | 1010.3 |
| 20260903162813 | 84 | 171 | 1.7 | 2.6 | 0.00 | 0.00 | 0.00 | 65 | 1010.2 |
| 20260903162309 | 83 | 238 | 0.9 | 2.6 | 0.00 | 0.00 | 0.00 | 67 | 1010.2 |
| 20260903161805 | 83 | 169 | 1.7 | 6.1 | 0.00 | 0.00 | 0.00 | 68 | 1010.3 |
| 20260903161300 | 83 | 64 | 1.7 | 9.6 | 0.00 | 0.00 | 0.00 | 69 | 1010.4 |
| 20260903160756 | 83 | 158 | 4.3 | 7.0 | 0.00 | 0.00 | 0.00 | 69 | 1010.2 |
| 20260903160255 | 83 | 57 | 1.7 | 3.5 | 0.00 | 0.00 | 0.00 | 66 | 1010.3 |
| 20260903155753 | 83 | 169 | 2.6 | 8.7 | 0.00 | 0.00 | 0.00 | 69 | 1010.4 |
| 20260903155248 | 82 | 94 | 4.3 | 6.1 | 0.00 | 0.00 | 0.00 | 68 | 1010.4 |
| 20260903154744 | 81 | 84 | 6.1 | 7.8 | 0.00 | 0.00 | 0.00 | 71 | 1010.4 |
| 20260903154240 | 82 | 94 | 4.3 | 7.0 | 0.00 | 0.00 | 0.00 | 69 | 1010.3 |
| 20260903153735 | 81 | 104 | 4.3 | 7.0 | 0.00 | 0.00 | 0.00 | 71 | 1010.4 |